Location: Strada George Coșbuc
(47.6577°N, 23.5639°E)
Time: 23:54:06
(UTC+03:00)

ISS - Pass Details

Date: 12 October 2017
Orbit: 401 x 408 km, 51.6° (Epoch: 18 October)

Event Time Altitude Azimuth Distance (km) Brightness Sun altitude
Rises 20:23:40 0° 291° (WNW) 2,326 1.6 -17.7°
Reaches altitude 10° 20:25:51 10° 282° (WNW) 1,465 0.3 -18.0°
Maximum altitude 20:28:52 35° 215° (SW) 678 -2.5 -18.5°
Enters shadow 20:29:50 28° 178° (S) 793 -2.5 -18.7°
